Weather History for Denver, CO

Change the Weather History Date:

Sunday, March 17, 2013

  Actual Average (KDEN) Record (KDEN)
Temperature  
Mean Temperature 46 °F 41 °F  
Max Temperature 60 °F 55 °F 76 °F (2012)
Min Temperature 33 °F 27 °F -6 °F (1892)
Degree Days  
Heating Degree Days 18 24  
Month to date heating degree days 449  
Since 1 July heating degree days 4888  
Cooling Degree Days 0 0  
Month to date cooling degree days 0  
Year to date cooling degree days 0  
Moisture  
Dew Point 28 °F    
Average Humidity 61    
Maximum Humidity 87    
Minimum Humidity 19    
Precipitation  
Precipitation 0.00 in 0.03 in 0.60 in (1933)
Month to date precipitation 0.42  
Year to date precipitation 1.20  
Snow  
Snow 0.00 in - - ()
Month to date snowfall  
Since 1 July snowfall  
Snow Depth -    
Sea Level Pressure  
Sea Level Pressure 29.72 in    
Wind  
Wind Speed 13 mph (SW)    
Max Wind Speed 30 mph    
Max Gust Speed 41 mph    
Visibility 11 miles    
Events      
T = Trace of Precipitation, MM = Missing Value Source: NWS Daily Summary

Daily Weather History Graph

Daily Weather History Graph

Search for Another Location

Airport:

Trip Planner

Search our weather history database for the weather conditions in past years. The results will help you decide how hot, cold, wet, or windy it might be!

Date:

Astronomy

Mar. 17, 2013 Rise Set
Actual Time 7:05 AM MDT 7:07 PM MDT
Civil Twilight 6:39 AM MDT 7:34 PM MDT
Nautical Twilight 6:07 AM MDT 8:05 PM MDT
Astronomical Twilight 5:35 AM MDT 8:37 PM MDT
Moon 10:21 AM MDT (3/17) 12:16 AM MDT (3/17)
Length of Visible Light 12h 55m
Length of Day
12h 01m
Waxing Crescent, 32% of the Moon is Illuminated
Mar 17
Waxing Crescent
Mar 19
First Quarter
Mar 27
Full
Apr 2
Last Quarter
Apr 10
New

Hourly Weather History & Observations

Time (MDT) Temp. Windchill Dew Point Humidity Pressure Visibility Wind Dir Wind Speed Gust Speed Precip Events Conditions
12:17 AM 41.0 °F 33.1 °F 33.8 °F 76% 29.83 in 10.0 mi SSW 15.0 mph - N/A   Clear
12:37 AM 41.0 °F 33.9 °F 33.8 °F 76% 29.82 in 10.0 mi SSW 12.7 mph - N/A   Clear
12:56 AM 41.0 °F 33.9 °F 33.8 °F 76% 29.80 in 10.0 mi South 12.7 mph - N/A   Clear
1:16 AM 41.0 °F 34.3 °F 33.8 °F 76% 29.79 in 10.0 mi South 11.5 mph - N/A   Clear
1:37 AM 41.0 °F 33.5 °F 32.0 °F 70% 29.78 in 10.0 mi SSW 13.8 mph - N/A   Clear
1:57 AM 41.0 °F 33.5 °F 32.0 °F 70% 29.78 in 10.0 mi SSW 13.8 mph - N/A   Clear
2:17 AM 41.0 °F 33.1 °F 32.0 °F 70% 29.77 in 10.0 mi SSW 15.0 mph - N/A   Clear
2:37 AM 41.0 °F 36.4 °F 32.0 °F 70% 29.77 in 10.0 mi South 6.9 mph - N/A   Clear
2:57 AM 35.6 °F 29.9 °F 32.0 °F 87% 29.76 in 10.0 mi South 6.9 mph - N/A   Clear
3:17 AM 37.4 °F 30.8 °F 32.0 °F 81% 29.76 in 10.0 mi South 9.2 mph - N/A   Clear
3:37 AM 37.4 °F 30.8 °F 32.0 °F 81% 29.75 in 10.0 mi South 9.2 mph - N/A   Clear
3:57 AM 41.0 °F 32.8 °F 32.0 °F 70% 29.74 in 10.0 mi SSW 16.1 mph 23.0 mph N/A   Clear
4:37 AM 41.0 °F 33.9 °F 32.0 °F 70% 29.73 in 10.0 mi SSW 12.7 mph - N/A   Clear
4:57 AM 39.2 °F 31.6 °F 32.0 °F 75% 29.72 in 10.0 mi South 12.7 mph - N/A   Clear
5:17 AM 37.4 °F 30.8 °F 32.0 °F 81% 29.72 in 10.0 mi South 9.2 mph - N/A   Clear
5:37 AM 37.4 °F 31.4 °F 32.0 °F 81% 29.71 in 10.0 mi South 8.1 mph - N/A   Clear
5:57 AM 35.6 °F 28.6 °F 32.0 °F 87% 29.70 in 10.0 mi South 9.2 mph - N/A   Clear
6:17 AM 35.6 °F 27.5 °F 32.0 °F 87% 29.69 in 10.0 mi South 11.5 mph - N/A   Clear
6:37 AM 37.4 °F 28.9 °F 30.2 °F 75% 29.68 in 10.0 mi South 13.8 mph - N/A   Clear
6:47 AM 41.0 °F 33.1 °F 30.2 °F 65% 29.68 in 40.0 mi South 15.0 mph - N/A   Mostly Cloudy
7:47 AM 41.0 °F 33.1 °F 28.4 °F 61% 29.66 in 40.0 mi South 15.0 mph - N/A   Scattered Clouds
9:55 AM 51.8 °F - 28.4 °F 41% 29.64 in 40.0 mi SW 12.7 mph - N/A   Mostly Cloudy
10:55 AM 57.2 °F - 28.4 °F 33% 29.63 in 40.0 mi WSW 15.0 mph - N/A   Mostly Cloudy
11:55 AM 57.2 °F - 24.8 °F 29% 29.60 in 40.0 mi WSW 13.8 mph - N/A   Mostly Cloudy
12:50 PM 59.0 °F - 24.8 °F 27% 29.58 in 40.0 mi West 13.8 mph 20.7 mph N/A   Mostly Cloudy
1:48 PM 59.0 °F - 21.2 °F 23% 29.55 in 50.0 mi West 19.6 mph 26.5 mph N/A   Scattered Clouds
2:56 PM 60.8 °F - 17.6 °F 19% 29.53 in 50.0 mi West 25.3 mph 39.1 mph N/A   Scattered Clouds
4:55 PM 57.2 °F - 15.8 °F 20% 29.56 in 20.0 mi WNW 28.8 mph 36.8 mph N/A   Scattered Clouds
5:48 PM 53.6 °F - 21.2 °F 28% 29.61 in 20.0 mi West 29.9 mph 41.4 mph N/A   Scattered Clouds
6:48 PM 46.4 °F 39.0 °F 26.6 °F 46% 29.65 in 20.0 mi West 19.6 mph 34.5 mph N/A   Scattered Clouds
7:50 PM 41.0 °F 34.3 °F 28.4 °F 61% 29.68 in 20.0 mi West 11.5 mph - N/A   Scattered Clouds
8:57 PM 41.0 °F 34.3 °F 26.6 °F 57% 29.72 in 10.0 mi WNW 11.5 mph - N/A   Clear
9:17 PM 41.0 °F 33.5 °F 26.6 °F 57% 29.73 in 10.0 mi WNW 13.8 mph 18.4 mph N/A   Clear
9:37 PM 41.0 °F 31.9 °F 24.8 °F 53% 29.75 in 10.0 mi WNW 19.6 mph 25.3 mph N/A   Clear
9:57 PM 41.0 °F 34.3 °F 23.0 °F 49% 29.76 in 10.0 mi WNW 11.5 mph - N/A   Clear
10:17 PM 37.4 °F 29.8 °F 26.6 °F 65% 29.78 in 10.0 mi West 11.5 mph - N/A   Clear
10:37 PM 35.6 °F 27.1 °F 24.8 °F 65% 29.79 in 10.0 mi NNW 12.7 mph 16.1 mph N/A   Clear
10:57 PM 35.6 °F 30.7 °F 23.0 °F 60% 29.80 in 10.0 mi NNW 5.8 mph - N/A   Clear
11:17 PM 33.8 °F 28.6 °F 23.0 °F 65% 29.81 in 10.0 mi North 5.8 mph - N/A   Clear
11:37 PM 33.8 °F 28.6 °F 21.2 °F 60% 29.82 in 10.0 mi North 5.8 mph - N/A   Clear
11:57 PM 33.8 °F 30.8 °F 19.4 °F 56% 29.83 in 10.0 mi NNW 3.5 mph - N/A   Clear